Change the Weather History Date:

Monday, March 4, 2013

  Actual Average Record
Temperature  
Mean Temperature 10 °F -  
Max Temperature 23 °F 14 °F 35 °F (1963)
Min Temperature -5 °F -15 °F -47 °F (1972)
Degree Days  
Heating Degree Days 54    
Moisture  
Dew Point 2 °F    
Average Humidity 75    
Maximum Humidity 88    
Minimum Humidity 55    
Precipitation  
Precipitation 0.00 in - - ()
Snow  
Snow 0.00 in - - ()
Snow Depth 15.00 in    
Sea Level Pressure  
Sea Level Pressure 30.52 in    
Wind  
Wind Speed 4 mph (ESE)    
Max Wind Speed 8 mph    
Max Gust Speed -    
Visibility 10 miles    
Events      
Averages and records for this station are not official NWS values.
T = Trace of Precipitation, MM = Missing Value Source: NWS Daily Summary

Daily Weather History Graph

Daily Weather History Graph

Search for Another Location

Airport or City:

Trip Planner

Search our weather history database for the weather conditions in past years. The results will help you decide how hot, cold, wet, or windy it might be!

Date:

Astronomy

Mar. 04, 2013 Rise Set
Actual Time 7:20 AM AKST 5:59 PM AKST
Civil Twilight 6:35 AM AKST 6:44 PM AKST
Nautical Twilight 5:42 AM AKST 7:38 PM AKST
Astronomical Twilight 4:47 AM AKST 8:33 PM AKST
Moon 3:11 AM AKST (3/4) 9:14 AM AKST (3/4)
Length of Visible Light 12h 09m
Length of Day
10h 38m
Waning Gibbous, 50% of the Moon is Illuminated
Mar 4
Waning Gibbous
Mar 4
Last Quarter
Mar 11
New
Mar 19
First Quarter
Mar 27
Full

Hourly Weather History & Observations

Time (AKST) Temp. Windchill Dew Point Humidity Pressure Visibility Wind Dir Wind Speed Gust Speed Precip Events Conditions
12:53 AM 10.0 °F -1.9 °F 3.9 °F 76% 30.55 in 10.0 mi ESE 8.1 mph - N/A   Clear
1:53 AM 10.9 °F 1.4 °F 5.0 °F 77% 30.54 in 10.0 mi ESE 5.8 mph - N/A   Partly Cloudy
3:53 AM 10.0 °F -0.9 °F 3.9 °F 76% 30.54 in 10.0 mi ESE 6.9 mph - N/A   Scattered Clouds
4:53 AM 6.1 °F -2.8 °F 1.9 °F 83% 30.56 in 10.0 mi ESE 4.6 mph - N/A   Scattered Clouds
5:53 AM 7.0 °F -1.7 °F 1.9 °F 80% 30.57 in 10.0 mi ESE 4.6 mph - N/A   Scattered Clouds
6:53 AM -0.0 °F - -2.9 °F 88% 30.59 in 10.0 mi Calm Calm - N/A   Scattered Clouds
7:53 AM -2.9 °F - -6.0 °F 87% 30.60 in 10.0 mi Calm Calm - N/A   Scattered Clouds
8:53 AM 1.0 °F -6.7 °F -2.9 °F 83% 30.60 in 10.0 mi NNE 3.5 mph - N/A   Partly Cloudy
9:53 AM 7.0 °F - 1.9 °F 80% 30.58 in 10.0 mi Calm Calm - N/A   Partly Cloudy
10:53 AM 12.9 °F 5.2 °F 5.0 °F 71% 30.57 in 10.0 mi SE 4.6 mph - N/A   Partly Cloudy
11:53 AM 17.1 °F 8.7 °F 6.1 °F 62% 30.55 in 10.0 mi East 5.8 mph - N/A   Partly Cloudy
12:53 PM 19.9 °F 12.1 °F 8.1 °F 60% 30.53 in 10.0 mi ESE 5.8 mph - N/A   Partly Cloudy
1:53 PM 23.0 °F 18.4 °F 9.0 °F 55% 30.51 in 10.0 mi SE 3.5 mph - N/A   Partly Cloudy
2:53 PM 21.9 °F 15.7 °F 9.0 °F 58% 30.50 in 10.0 mi West 4.6 mph - N/A   Partly Cloudy
3:53 PM 21.9 °F - 10.0 °F 60% 30.48 in 10.0 mi Calm Calm - N/A   Partly Cloudy
4:53 PM 23.0 °F - 10.0 °F 58% 30.47 in 10.0 mi Calm Calm - N/A   Partly Cloudy
5:53 PM 16.0 °F - 9.0 °F 74% 30.47 in 10.0 mi Calm Calm - N/A   Scattered Clouds
6:53 PM 9.0 °F - 6.1 °F 88% 30.48 in 10.0 mi Calm Calm - N/A   Scattered Clouds
7:53 PM 5.0 °F - 1.9 °F 87% 30.49 in 10.0 mi Calm Calm - N/A   Partly Cloudy
8:53 PM -2.0 °F - -5.1 °F 87% 30.49 in 10.0 mi Calm Calm - N/A   Partly Cloudy
9:53 PM -2.0 °F - -6.0 °F 83% 30.46 in 10.0 mi Calm Calm - N/A   Clear
10:53 PM -2.9 °F - -8.0 °F 79% 30.45 in 10.0 mi Calm Calm - N/A   Clear
11:53 PM -5.1 °F - -9.9 °F 80% 30.44 in 10.0 mi Calm Calm - N/A   Clear